Flag for United Kingdom Weather past 2 weeks in Canterbury, England, United Kingdom

Now
63 °F

Fog.


Feels Like: 63 °F
Forecast: 55 / 62 °F
Wind: 5 mph from Northeast

Location: Manston

Current Time: Sep 20, 2014 at 1:14:40 PM

Latest Report: Sep 20, 2014 at 12:00 PM


Visibility: 2 mi

Pressure: 30.00 "Hg

Humidity: 99%

Dew point: 63 °F

Location of CanterburyLocation

Historic Weather in Canterbury — Graph

°F

Canterbury temperature yesterday

Maximum temperature yesterday: 71 °F (at 4:00 PM)
Minimum temperature yesterday: 60 °F (at 2:00 AM)
Average temperature yesterday: 64 °F

Past Weeks' High & Low Weather Summary

 TemperatureHumidityPressure
High72 °F (Sep 18, 3:00 PM)100% (Sep 20, 3:00 AM)30.32 "Hg (Sep 20, 3:00 AM)
Low52 °F (Sep 10, 5:00 AM)52% (Sep 8, 12:00 PM)29.79 "Hg (Sep 18, 5:00 AM)
Average62 °F84%30.05 "Hg
* Reported Sep 5 12:00 Noon — Sep 20 12:00 Noon, Canterbury, Weather by CustomWeather, © 2014

Note: Actual official high and low records may vary slightly from our data, if they occured in-between our weather recording intervals... More about our weather records

Advertising

Canterbury weather history for previous 24 hours

 ConditionsComfort  
Time TempWeatherWind HumidityBarometerVisibility
12:00 PM
Sep 20
63 °FFog.5 mph99%30.00 "Hg2 mi
11:00 AM62 °FFog.3 mph99%29.99 "Hg2 mi
10:00 AM62 °FCool.7 mph100%29.98 "Hg1 mi
9:00 AM62 °FDuststorm.6 mph99%29.97 "Hg1 mi
8:00 AM62 °FDuststorm.3 mph99%29.96 "Hg0 mi
7:00 AM62 °FDuststorm.5 mph99%29.94 "Hg0 mi
6:00 AM62 °FDuststorm.5 mph99%29.93 "Hg0 mi
5:00 AM61 °FDuststorm.5 mph100%29.93 "Hg0 mi
4:00 AM62 °FDuststorm.7 mph99%29.92 "Hg0 mi
3:00 AM61 °FDuststorm.5 mph100%29.92 "Hg0 mi
2:00 AM61 °FDuststorm.3 mph99%29.93 "Hg0 mi
1:00 AM62 °FDuststorm.5 mph99%29.92 "Hg0 mi
12:00 AM63 °FDuststorm.2 mph99%29.93 "Hg0 mi
11:00 PM
Sep 19
63 °FDuststorm.3 mph98%29.93 "Hg0 mi
10:00 PM63 °FDuststorm.5 mph99%29.92 "Hg0 mi
9:00 PM62 °FCool.3 mph98%29.92 "Hg1 mi
8:00 PM63 °FFog.3 mph96%29.90 "Hg1 mi
7:00 PM65 °FSmoke.5 mph89%29.88 "Hg2 mi
6:00 PM69 °FSmoke.6 mph84%29.86 "Hg3 mi
5:00 PM69 °FSmoke.6 mph84%29.86 "Hg2 mi
4:00 PM71 °FMild.6 mph81%29.86 "Hg3 mi
3:00 PM69 °FSmoke.5 mph84%29.87 "Hg2 mi
2:00 PM68 °FSmoke.7 mph86%29.86 "Hg2 mi
1:00 PM70 °FSmoke.3 mph87%29.87 "Hg2 mi
Weather by CustomWeather, © 2014

See weather overviewHow to use our weather pages